Weather History for KMFI - August, 2013

Change the Weather History Date:

Sunday, August 11, 2013

  Actual Average Record
Temperature  
Mean Temperature 62 °F -  
Max Temperature 73 °F 78 °F 92 °F (1988)
Min Temperature 54 °F 53 °F 37 °F (1967)
Degree Days  
Heating Degree Days 2    
Growing Degree Days 12 (Base 50)    
Moisture  
Dew Point 58 °F    
Average Humidity 85    
Maximum Humidity 100    
Minimum Humidity 64    
Precipitation  
Precipitation 0.00 in - - ()
Sea Level Pressure  
Sea Level Pressure 30.09 in    
Wind  
Wind Speed 1 mph (South)    
Max Wind Speed 8 mph    
Max Gust Speed -    
Visibility 9 miles    
Events Rain    
Averages and records for this station are not official NWS values.
T = Trace of Precipitation, MM = Missing Value Source: NWS Daily Summary

Daily Weather History Graph

Daily Weather History Graph

Search for Another Location

Airport or City:

Trip Planner

Search our weather history database for the weather conditions in past years. The results will help you decide how hot, cold, wet, or windy it might be!

Date:

Astronomy

Aug. 11, 2013 Rise Set
Actual Time 5:58 AM CDT 8:12 PM CDT
Civil Twilight 5:26 AM CDT 8:44 PM CDT
Nautical Twilight 4:46 AM CDT 9:23 PM CDT
Astronomical Twilight 4:02 AM CDT 10:07 PM CDT
Moon 11:01 AM CDT (8/11) 10:11 PM CDT (8/11)
Length of Visible Light 15h 17m
Length of Day
14h 13m
Waxing Crescent, 22% of the Moon is Illuminated
Aug 11
Waxing Crescent
Aug 14
First Quarter
Aug 20
Full
Aug 28
Last Quarter
Sep 5
New

Hourly Weather History & Observations

Time (CDT) Temp. Dew Point Humidity Pressure Visibility Wind Dir Wind Speed Gust Speed Precip Events Conditions
12:54 AM 55.0 °F 52.0 °F 89% 30.14 in 10.0 mi Calm Calm - N/A   Clear
1:54 AM 54.0 °F 52.0 °F 93% 30.13 in 10.0 mi Calm Calm - N/A   Clear
2:54 AM 55.0 °F 53.1 °F 93% 30.13 in 10.0 mi Calm Calm - N/A   Clear
3:54 AM 57.0 °F 53.1 °F 87% 30.14 in 10.0 mi Calm Calm - N/A   Clear
4:54 AM 55.9 °F 53.1 °F 90% 30.12 in 10.0 mi Calm Calm - N/A   Clear
5:54 AM 55.9 °F 53.1 °F 90% 30.12 in 10.0 mi Calm Calm - N/A   Clear
6:54 AM 57.0 °F 54.0 °F 89% 30.12 in 10.0 mi Calm Calm - N/A   Partly Cloudy
7:54 AM 57.9 °F 55.0 °F 90% 30.12 in 10.0 mi Calm Calm - N/A   Scattered Clouds
8:54 AM 59.0 °F 55.9 °F 90% 30.10 in 10.0 mi SSW 4.6 mph - 0.00 in Rain Light Rain
9:07 AM 59.0 °F 55.4 °F 88% 30.11 in 10.0 mi Calm Calm - 0.00 in Rain Light Rain
9:22 AM 59.0 °F 55.4 °F 88% 30.10 in 10.0 mi Calm Calm - 0.00 in Rain Light Rain
9:54 AM 59.0 °F 57.0 °F 93% 30.11 in 10.0 mi SSW 3.5 mph - 0.00 in   Overcast
10:54 AM 61.0 °F 59.0 °F 93% 30.12 in 4.0 mi Calm Calm - 0.00 in Rain Rain
11:40 AM 62.6 °F 59.0 °F 88% 30.10 in 9.0 mi Calm Calm - 0.00 in Rain Light Rain
11:54 AM 62.1 °F 59.0 °F 90% 30.11 in 10.0 mi Calm Calm - 0.00 in Rain Light Rain
12:04 PM 62.6 °F 60.8 °F 94% 30.09 in 10.0 mi South 4.6 mph - 0.00 in   Overcast
12:11 PM 62.6 °F 60.8 °F 94% 30.09 in 10.0 mi South 4.6 mph - 0.00 in   Overcast
12:20 PM 64.4 °F 60.8 °F 88% 30.09 in 10.0 mi South 3.5 mph - 0.00 in   Overcast
12:30 PM 64.4 °F 60.8 °F 88% 30.09 in 10.0 mi ESE 3.5 mph - 0.00 in   Overcast
12:54 PM 64.9 °F 60.1 °F 84% 30.09 in 10.0 mi Calm Calm - 0.00 in   Overcast
1:07 PM 64.4 °F 60.8 °F 88% 30.08 in 10.0 mi Calm Calm - N/A   Overcast
1:15 PM 66.2 °F 60.8 °F 83% 30.08 in 10.0 mi Calm Calm - N/A   Overcast
1:44 PM 66.2 °F 60.8 °F 83% 30.09 in 10.0 mi Calm Calm - N/A   Overcast
1:54 PM 66.9 °F 60.1 °F 79% 30.09 in 10.0 mi SSE 3.5 mph - N/A   Overcast
2:12 PM 66.2 °F 59.0 °F 78% 30.08 in 10.0 mi Calm Calm - N/A   Mostly Cloudy
2:54 PM 71.1 °F 60.1 °F 68% 30.07 in 10.0 mi East 4.6 mph - N/A   Clear
3:11 PM 69.8 °F 59.0 °F 68% 30.07 in 10.0 mi SSE 5.8 mph - N/A   Mostly Cloudy
3:38 PM 69.8 °F 57.2 °F 64% 30.07 in 10.0 mi South 5.8 mph - N/A   Overcast
3:49 PM 69.8 °F 59.0 °F 68% 30.07 in 10.0 mi SSW 4.6 mph - N/A   Overcast
3:54 PM 71.1 °F 60.1 °F 68% 30.07 in 10.0 mi SE 4.6 mph - N/A   Overcast
4:37 PM 71.6 °F 60.8 °F 69% 30.07 in 10.0 mi SSW 8.1 mph - N/A   Scattered Clouds
4:54 PM 71.1 °F 60.1 °F 68% 30.06 in 10.0 mi WSW 3.5 mph - N/A   Clear
5:54 PM 71.1 °F 61.0 °F 70% 30.05 in 10.0 mi South 6.9 mph - N/A   Partly Cloudy
6:54 PM 70.0 °F 60.1 °F 71% 30.04 in 10.0 mi SSW 6.9 mph - N/A   Clear
7:54 PM 64.9 °F 60.1 °F 84% 30.04 in 10.0 mi SSW 4.6 mph - N/A   Clear
8:54 PM 62.1 °F 60.1 °F 93% 30.04 in 10.0 mi SSW 3.5 mph - N/A   Clear
9:54 PM 61.0 °F 59.0 °F 93% 30.05 in 10.0 mi SSW 4.6 mph - N/A   Clear
10:54 PM 61.0 °F 60.1 °F 97% 30.05 in 9.0 mi Calm Calm - N/A   Scattered Clouds
11:37 PM 59.0 °F 59.0 °F 100% 30.05 in 1.5 mi Calm Calm - N/A   Partly Cloudy
11:46 PM 59.0 °F 57.2 °F 94% 30.05 in 1.0 mi Calm Calm - N/A   Scattered Clouds
11:54 PM 59.0 °F 57.9 °F 96% 30.06 in 1.8 mi Calm Calm - N/A   Partly Cloudy
11:58 PM 60.8 °F 59.0 °F 94% 30.05 in 4.0 mi Calm Calm - N/A   Partly Cloudy